TimeEDT,TemperatureF,Dew PointF,Humidity,Sea Level PressureIn,VisibilityMPH,Wind Direction,Wind SpeedMPH,Gust SpeedMPH,PrecipitationIn,Events,Conditions,WindDirDegrees,DateUTC
12:53 AM,48.2,42.8,82,30.12,10.0,Calm,Calm,-,N/A,,Overcast,0,2011-10-24 04:53:00
1:53 AM,46.9,43.0,86,30.12,10.0,Calm,Calm,-,N/A,,Overcast,0,2011-10-24 05:53:00
2:53 AM,46.9,43.0,86,30.12,10.0,Calm,Calm,-,N/A,,Overcast,0,2011-10-24 06:53:00
3:53 AM,46.9,43.0,86,30.12,10.0,NW,3.5,-,N/A,,Overcast,320,2011-10-24 07:53:00
4:53 AM,48.0,43.0,83,30.12,10.0,Calm,Calm,-,N/A,,Overcast,0,2011-10-24 08:53:00
5:53 AM,46.9,43.0,86,30.13,10.0,Calm,Calm,-,N/A,,Overcast,0,2011-10-24 09:53:00
6:53 AM,46.9,43.0,86,30.12,10.0,Calm,Calm,-,N/A,,Overcast,0,2011-10-24 10:53:00
7:53 AM,46.9,44.1,90,30.13,10.0,Calm,Calm,-,N/A,,Mostly Cloudy,0,2011-10-24 11:53:00
8:53 AM,48.0,44.1,86,30.13,10.0,Calm,Calm,-,N/A,,Mostly Cloudy,0,2011-10-24 12:53:00
9:53 AM,51.1,42.1,71,30.12,10.0,Calm,Calm,-,N/A,,Mostly Cloudy,0,2011-10-24 13:53:00
10:53 AM,52.0,42.1,69,30.12,10.0,SW,4.6,-,N/A,,Mostly Cloudy,220,2011-10-24 14:53:00
11:53 AM,54.0,39.9,59,30.09,10.0,South,8.1,-,N/A,,Mostly Cloudy,190,2011-10-24 15:53:00
12:53 PM,54.0,39.9,59,30.07,10.0,South,9.2,-,N/A,,Mostly Cloudy,190,2011-10-24 16:53:00
1:53 PM,55.0,39.0,55,30.05,10.0,South,5.8,-,N/A,,Mostly Cloudy,170,2011-10-24 17:53:00
2:53 PM,55.4,39.2,54,30.04,10.0,SSE,3.5,-,N/A,,Mostly Cloudy,160,2011-10-24 18:53:00
3:53 PM,55.0,39.9,57,30.02,10.0,SSE,9.2,-,N/A,,Mostly Cloudy,150,2011-10-24 19:53:00
4:53 PM,53.1,39.9,61,30.01,10.0,SSE,8.1,-,N/A,,Mostly Cloudy,160,2011-10-24 20:53:00
5:53 PM,50.0,39.0,66,30.01,10.0,South,6.9,-,N/A,,Mostly Cloudy,170,2011-10-24 21:53:00
6:53 PM,48.0,39.0,71,30.00,10.0,SSE,6.9,-,N/A,,Scattered Clouds,160,2011-10-24 22:53:00
7:53 PM,46.9,41.0,80,29.99,10.0,South,4.6,-,N/A,,Mostly Cloudy,170,2011-10-24 23:53:00
8:53 PM,46.9,42.1,83,29.98,10.0,SSE,3.5,-,N/A,,Mostly Cloudy,150,2011-10-25 00:53:00
9:53 PM,48.2,42.8,82,29.96,10.0,SSE,4.6,-,N/A,,Overcast,160,2011-10-25 01:53:00
10:53 PM,50.0,44.1,80,29.94,10.0,South,6.9,-,N/A,,Overcast,170,2011-10-25 02:53:00
11:53 PM,50.0,44.6,82,29.91,10.0,South,5.8,-,N/A,,Mostly Cloudy,170,2011-10-25 03:53:00